Weather History for Pratica di Mare, Italy

Change the Weather History Date:

Friday, September 21, 2012

  Actual Average Record
Temperature  
Mean Temperature 64 °F -  
Max Temperature 74 °F 73 °F 84 °F (2011)
Min Temperature 53 °F 56 °F 53 °F (2012)
Degree Days  
Heating Degree Days 2    
Growing Degree Days 14 (Base 50)    
Moisture  
Dew Point 58 °F    
Average Humidity 70    
Maximum Humidity 88    
Minimum Humidity 47    
Precipitation  
Precipitation 0.00 in 0.14 in - ()
Sea Level Pressure  
Sea Level Pressure 30.12 in    
Wind  
Wind Speed 7 mph ()    
Max Wind Speed 13 mph    
Max Gust Speed -    
Visibility 9.2 miles    
Events      
Averages and records for this station are not official NWS values.
T = Trace of Precipitation, MM = Missing Value Source: Averaged Metar Reports

Daily Weather History Graph

Daily Weather History Graph

Search for Another Location

Airport:

Trip Planner

Search our weather history database for the weather conditions in past years. The results will help you decide how hot, cold, wet, or windy it might be!

Date:

Astronomy

Sep. 21, 2012 Rise Set
Actual Time 6:56 AM CEST 7:08 PM CEST
Civil Twilight 6:29 AM CEST 7:36 PM CEST
Nautical Twilight 5:56 AM CEST 8:08 PM CEST
Astronomical Twilight 5:23 AM CEST 8:42 PM CEST
Moon 1:05 PM CEST (9/21) 10:47 PM CEST (9/21)
Length of Visible Light 13h 07m
Length of Day
12h 11m
Waxing Crescent, 34% of the Moon is Illuminated
Sep 21
Waxing Crescent
Sep 22
First Quarter
Sep 30
Full
Oct 8
Last Quarter
Oct 15
New

Hourly Weather History & Observations

Time (CEST) Temp. Dew Point Humidity Pressure Visibility Wind Dir Wind Speed Gust Speed Precip Events Conditions
12:55 AM 64.4 °F 57.2 °F 77% 30.09 in - East 4.6 mph - N/A   Clear
1:55 AM 64.4 °F 55.4 °F 73% 30.12 in 6.2 mi East 9.2 mph - N/A   Partly Cloudy
2:00 AM 65 °F 55 °F 61% 30.13 in 9 mi East 9.2 mph - -   Scattered Clouds
3:55 AM 68.0 °F 60.8 °F 78% 30.12 in 6.2 mi ENE 12.7 mph - N/A   Partly Cloudy
4:55 AM 68.0 °F 60.8 °F 78% 30.01 in - NNE 9.2 mph - N/A   Clear
5:00 AM 69 °F 61 °F 69% 30.02 in 9 mi NNE 9.2 mph - -  
6:55 AM 55.4 °F 51.8 °F 88% 30.12 in - NNE 8.1 mph - N/A   Clear
7:55 AM 57.2 °F 51.8 °F 82% 30.12 in - NNE 6.9 mph - N/A   Clear
8:00 AM 57 °F 52 °F 77% 30.15 in 9 mi NNE 6.9 mph - -   Clear
8:55 AM 62.6 °F 57.2 °F 82% 30.12 in 6.2 mi NE 3.5 mph - N/A   Partly Cloudy
9:55 AM 68.0 °F 55.4 °F 64% 30.15 in 6.2 mi ESE 8.1 mph - N/A   Partly Cloudy
10:55 AM 71.6 °F 59.0 °F 64% 30.15 in 6.2 mi SSE 8.1 mph - N/A   Partly Cloudy
11:00 AM 72 °F 59 °F 54% 30.17 in 16 mi SSE 8.1 mph - -   Scattered Clouds
11:55 AM 73.4 °F 57.2 °F 57% 30.15 in 6.2 mi South 9.2 mph - N/A   Scattered Clouds
12:55 PM 73.4 °F 59.0 °F 61% 30.15 in 6.2 mi South 10.4 mph - N/A   Partly Cloudy
1:55 PM 73.4 °F 57.2 °F 57% 30.15 in 6.2 mi South 10.4 mph - N/A   Partly Cloudy
2:00 PM 74 °F 58 °F 47% 30.17 in 16 mi South 10.4 mph - -   Scattered Clouds
2:55 PM 73.4 °F 55.4 °F 53% 30.15 in 6.2 mi SSW 9.2 mph - N/A   Partly Cloudy
3:55 PM 73.4 °F 59.0 °F 61% 30.12 in - South 9.2 mph - N/A   Clear
4:55 PM 73.4 °F 59.0 °F 61% 30.09 in - SSW 8.1 mph - N/A   Clear
5:00 PM 73 °F 59 °F 52% 30.12 in 16 mi SSW 8.1 mph - -  
6:55 PM 71.6 °F 62.6 °F 73% 30.12 in - South 4.6 mph - N/A   Clear
7:55 PM 68.0 °F 62.6 °F 83% 30.12 in - South 4.6 mph - N/A   Clear
8:00 PM 68 °F 62 °F 76% 30.12 in 16 mi South 4.6 mph - -  
8:55 PM 66.2 °F 60.8 °F 83% 30.12 in - ESE 3.5 mph - N/A   Clear
9:55 PM 66.2 °F 60.8 °F 83% 30.12 in - East 6.9 mph - N/A   Clear
10:55 PM 66.2 °F 60.8 °F 83% 30.09 in - East 6.9 mph - N/A   Clear
11:00 PM 66 °F 61 °F 78% 30.12 in 9 mi East 6.9 mph - -  
11:55 PM 66.2 °F 60.8 °F 83% 30.09 in - East 8.1 mph - N/A   Clear